Regional Weather Roundup
Issued by NWS New Orleans/Baton Rouge, LA

Home | Current Version | Previous Version | Graphics & Text | Print | Product List | Glossary On
Versions: 1 2 3 4 5 6 7 8 9 10 11 12 13 14 15 16 17 18 19 20 21 22 23 24 25 26 27 28 29 30 31 32 33 34 35 36 37 38 39 40 41 42 43 44 45 46 47 48 49 50
975
ASUS44 KLIX 250905
RWRLIX
NEW ORLEANS REGIONAL WEATHER ROUNDUP
NATIONAL WEATHER SERVICE NEW ORLEANS LA
300 AM CST SUN JAN 25 2015

NOTE: "FAIR" INDICATES FEW OR NO CLOUDS BELOW 12,000 FEET WITH NO
      SIGNIFICANT WEATHER AND/OR OBSTRUCTIONS TO VISIBILITY.
      SKY/WX - SKY CONDITION AND SIGNIFICANT WEATHER.
      TMP - AIR TEMPERATURE.     DP    - DEWPOINT TEMPERATURE.
      RH  - RELATIVE HUMIDITY.   PRES  - PRESSURE.
      HI  - HEAT INDEX.          WCI   - WIND CHILL INDEX.

*  THESE STATIONS ARE NOT NWS OR FAA STATIONS AND ARE NOT UNDER
   NWS QUALITY CONTROL.

LAZ038-040-048-061>063-065>067-069-251000-
SOUTHEAST LOUISIANA

CITY           SKY/WX    TMP DP  RH WIND       PRES   REMARKS
N.O. AUDUBON   NOT AVBL
N.O. INTL ARPT PTCLDY    42  39  89 SW6       30.07S
N.O. LAKEFRONT PTCLDY    47  42  83 SW7       30.08F
N.O. DOWNTOWN*   N/A     46  39  76 S3        30.08S
SLIDELL        CLEAR     39  37  92 CALM      30.06F
BATON ROUGE    PTCLDY    41  38  89 SW8       30.05S
BOOTHVILLE     CLEAR     46  42  86 W6        30.10S
BELLE CHASSE   CLEAR     37  33  85 S3        30.08S FOG
BOGALUSA*        N/A     35  32  91 CALM      30.06F
GALLIANO*      FOG       41  41  98 MISG      30.09S VSB 1/2
NEW ROADS*       N/A     44  41  89 SW6       30.05S
GONZALES*        N/A     39  39  99 CALM      30.07S
HAMMOND*       PTCLDY    37  36  93 CALM      30.08R
HOUMA*         SNOW      37  37 100 CALM      30.08F VSB<1/4
PORT FOURCHON* MOSUNNY   52  46  82 W6        30.13R

$$

MSZ070-080>082-251000-
SOUTHERN MISSISSIPPI

CITY           SKY/WX    TMP DP  RH WIND       PRES   REMARKS
MCCOMB         CLEAR     39  35  86 CALM      30.02F
GULFPORT       CLEAR     42  39  89 CALM      30.06F
BILOXI         CLEAR     45  40  83 W5        30.06F
PASCAGOULA     CLEAR     42  39  89 CALM      30.06F

$$

COASTAL OBSERVATIONS
LAKE AND NEARSHORE STATIONS

STATION/POSITION TIME  TEMP    WIND        PRES    WAVE
                       AIR SEA DIR/SP/G            HT/PER
                 (UTC) (F)     (DEG/KT/KT) (MB)    (FT/S)
PASCAGOULA       0900   49     270/ 10/ 15 1017.5
WAVELAND YACHT   0900   45     270/  4/  5 1016.8
GRAND ISLE       0900   52 53  290/  9/ 10 1019.3
SOUTHWEST PASS   0900   53 45  300/ 13/ 18 1019.2
NEW CANAL        0900   45 51  230/  3/  4 1018.7
SHELL BEACH      0900   47 52  260/  7/  8 1018.2

OFFSHORE STATIONS

STATION/POSITION TIME  TEMP    WIND        PRES    WAVE
                       AIR SEA DIR/SP/G            HT/PER
                 (UTC) (F)     (DEG/KT/KT) (MB)    (FT/S)
64 S DAUPHIN ISL 0820   56 70  300/ 16/ 19 1018.6    5/ 5

$$




USA.gov is the U.S. government's official web portal to all federal, state and local government web resources and services.